Starlink 32340

operational
NORAD ID: 61008 Int'l Des: 2024-158 Owner: SPXS Country: US Constellation: starlink
LEOCIRCULAR

Über Starlink 32340

Beschreibung wird geladen...

Live-Position

3D-Globus wird geladen...

Nächste Überflüge

Höhenverlauf

Altitude vs Time

uPlot chart will show altitude changes over time

Zweizeiliger Elementsatz

1 61008U 24158U 25350.31649097 .00002526 00000-0 97387-4 0 9992
2 61008 53.1572 92.9183 0001325 98.6089 261.5062 15.30193836 72812
Epoch: 16. Dez. 2025 • Age: 19 hours

Aktueller Status

Höhe 475.1 km
Geschwindigkeit 7.63 km/s
Subsatellitenpunkt 19.19°N, 121.85°E
Startdatum 5. Sept. 2024
Alter 1.2 years
Typ internet

Technische Details

Klassifizierung Payload
Masse 730.00 kg
Trockenmasse 700.00 kg
Gesamtmasse 730.00 kg
Länge 0.30 m
Durchmesser 4.10 m
Spannweite 29.00 m
Form Box + pan
Hersteller SPXS
Bus-Typ Starlink V2M
Phasenstatus In Orbit
Besitzer/Staat SPXS/US

Große Konstellationen

Loading constellations...